STARLINK-11547, 62587

Orbit data source: Space-Track

STARLINK-11547, 62587 is a payload satellite owned by SpaceX/Seattle (US) in LEO that was launched on Mon, 13 Jan 2025 UTC via an FALCON 9 launch vehicle from the Air Force Eastern Test Range (AFETR). Payload-class satellites include a variety of spacecraft equipped with specific instruments for various scientific and technological missions. These include communications satellites like Starlink; space stations such as the ISS; scientific satellites like the Hubble; Earth observation satellites from companies like Planet Labs, Umbra, and HawkEye 360; GPS; miniature CubeSats for education and research; and military/defense satellites.

Loading next visibility...
Identifier
62587, 2025-008A
Orbit
LEO
Country
Flag of USUS
Related business
Manufacturer
SpaceX/Seattle
Mission
Operational Commercial Communications
Bus & Motor
STARLINK V2M, Unknown motor
Mass
730 kg wet, ~700 kg dry
Launch date (UTC)
2025-01-13 (8 months ago)
Launch vehicle
FALCON 9
Launch site
Air Force Eastern Test Range (AFETR)
Object type
Payload
Rocket body
Debris
Shape & HBR
Box + 2 Pan, 14.5 m
Radar Cross Section
36.964 m², Large (>1 m²)

Expand to show TLE details & history
Last TLE update: 20 hours ago

TLE from 20 hours ago
0 STARLINK-11547
1 62587U 25008A   25242.18827489  .00321849  00000-0  23894-2 0  9990
2 62587  42.9985 200.6879 0001352 189.2695 170.8148 15.71102156 35994
Epoch: 2025-08-30T04:31Z
TLE epoch observation values (Epoch: 2025-08-30T04:31:06.95Z)
Latitude
-0.00002°
Longitude
154.28277°
Altitude
356.415 km
Speed
7.697 km/s
True Right ascension
13h 22m 45s
True Declination
0° 00' 00"
Sunlit
Object was in daylight at epoch
Visualization orbit readout
Latitude
Unknown
Longitude
Unknown
Altitude
Unknown
Speed
Unknown
Apparent Right ascension
Unknown
Apparent Declination
Unknown
Sunlit
N/A
Visualization observer readout
Local Sidereal Time
16:02:25
Azimuth
Unknown
Elevation
Unknown
Doppler factor
Unknown
Orbital elements
Apogee altitude
358.639 km
Perigee altitude
356.817 km
Semi-major axis
6,735.865 km
Eccentricity
0.00014
Inclination
42.9985°
RAAN
200.6879°
Arg. of periapsis
189.2695°
True anomaly
170.81727°
Mean anomaly
170.8148°
Eccentric anomaly
170.81604°
Mean motion
3.92603 °/min
Orbital period
91.7 mins
BSTAR
0.0023894
Loading maneuver chart data...
Computing Atmospheric mass density...
Loading historical data...
Loading historical data...
Loading historical data...
Loading historical data...
Loading historical data...
Loading historical data...
Loading historical data...

Documentation

Showing up to 5 results
|